Location: Augustenthal
(51.7167°N, 10.2833°E)
Time: 06:09:56
(UTC+00:00)

ISS - Pass Details

Date: 27 September 2021
Orbit: 417 x 423 km, 51.6° (Epoch: 18 October)

Event Time Altitude Azimuth Distance (km) Brightness Sun altitude
Rises 19:46:56 0° 283° (WNW) 2,368 1.2 -24.8°
Reaches altitude 10° 19:49:05 10° 277° (W) 1,503 -0.1 -25.1°
Enters shadow 19:50:45 25° 262° (W) 897 -1.7 -25.3°
